Regional Weather Roundup
Issued by NWS Cleveland, OH

Home | Current Version | Previous Version | Graphics & Text | Print | Product List | Glossary On
Versions: 1 2 3 4 5 6 7 8 9 10 11 12 13 14 15 16 17 18 19 20 21 22 23 24 25 26 27 28 29 30 31 32 33 34 35 36 37 38 39 40 41 42 43 44 45 46 47 48 49 50
474
ASUS41 KCLE 291602
RWRCLE
OHIO REGIONAL WEATHER ROUNDUP
NATIONAL WEATHER SERVICE CLEVELAND, OH
1200 PM EDT SUN MAY 29 2016

NOTE: "FAIR" INDICATES FEW OR NO CLOUDS BELOW 12,000 FEET WITH NO
SIGNIFICANT WEATHER AND/OR OBSTRUCTIONS TO VISIBILITY.

OHZ001>008-015>018-024>027-034-035-043-044-291700-
   NORTHWEST OHIO

CITY           SKY/WX    TMP DP  RH WIND       PRES   REMARKS
DEFIANCE       MOSUNNY   82  65  56 SW14      30.05S
FINDLAY        CLOUDY    80  66  62 SW14      30.06F
TOLEDO EXPRESS CLOUDY    80  66  62 SW8       30.05F
TOLEDO EXEC    CLOUDY    81  65  58 SW13      30.06S
LIMA           MOSUNNY   78  67  68 S13       30.08S
$$

OHZ009>014-019>023-028>033-038-089-291700-
   NORTHEAST OHIO

CITY           SKY/WX    TMP DP  RH WIND       PRES   REMARKS
CLE-HOPKINS    CLOUDY    80  65  59 SW8       30.10S
CLE-LAKEFRONT  CLOUDY    80  66  62 S9        30.07S
CUY CO. ARPT   CLOUDY    82  66  57 W12       30.09S
LORAIN-ELYRIA  CLOUDY    76  66  71 SW7       30.09S
ASHTABULA      CLOUDY    80  68  66 S9        30.09F
AKRON-CANTON   CLOUDY    79  64  60 SW6       30.11F
WOOSTER        CLOUDY    78  65  63 SW8       30.12R
MANSFIELD      PTSUNNY   75  67  76 SW7       30.12S
YOUNGSTOWN     CLOUDY    79  65  62 SW6       30.10F
$$

OHZ042-051>053-060>062-070>072-077>081-291700-
  SOUTHWEST OHIO

CITY           SKY/WX    TMP DP  RH WIND       PRES   REMARKS
CINC-COVINGTON PTSUNNY   80  67  64 VRB5      30.11F
CINC-LUNKEN    CLOUDY    79  70  74 VRB5      30.10F
HAMILTON       MOSUNNY   82  68  62 VRB6      30.11F
DAYTON         CLOUDY    79  67  66 SW8       30.12S
WRIGHT-PAT AFB CLOUDY    79  69  73 S5        30.10S
DAYTON GENERAL CLOUDY    79  66  64 W6        30.10F
WILMINGTON     CLOUDY    78  67  68 SW8       30.12S
$$

OHZ036-037-039>041-045>050-054>059-063>069-073>076-082>088-291700-
  CENTRAL AND SOUTHEAST OHIO

CITY           SKY/WX    TMP DP  RH WIND       PRES   REMARKS
COLUMBUS       CLOUDY    76  64  66 S5        30.11S
OSU AIRPORT    CLOUDY    76  66  71 S9        30.11S
BOLTON FIELD   NOT AVBL
RICKENBACK AFB NOT AVBL
NEWARK         CLOUDY    78  65  63 S3        30.10F
MARION         CLOUDY    76  68  76 S9        30.11S
LANCASTER      CLOUDY    76  68  76 S5        30.12S
ZANESVILLE     CLOUDY    81  70  69 S3        30.11S
NEW PHILLY     CLOUDY    78  66  66 CALM      30.12S
$$




USA.gov is the U.S. government's official web portal to all federal, state and local government web resources and services.